Theta_e
322 321 323 324 327 325 328 329 323 323 327 328 330 336 339 337 342 341 334 339 338 339 338 337 337 338 337 337 337 335 335 335 335 336 334 333 333 332 331 330 329 329 334 335 336 337 338 338 338
321 323 323 323 329 328 325 323 326 326 332 330 331 332 336 337 329 332 335 340 340 340 338 337 338 337 336 336 335 335 335 334 334 334 334 333 333 334 334 333 332 330 329 331 336 336 336 336 337
319 320 324 326 324 327 325 325 326 327 327 331 331 332 334 325 318 331 339 339 340 340 339 337 337 337 336 336 337 335 334 333 332 332 333 333 333 334 335 335 334 333 332 331 331 338 334 335 335
319 321 322 326 327 323 322 324 326 325 325 325 328 324 316 315 316 337 338 338 338 337 337 338 337 337 336 336 335 334 333 333 333 333 332 332 333 333 332 332 332 331 332 333 332 331 336 334 332
316 321 325 323 321 319 318 323 327 327 324 325 327 328 314 317 336 336 337 336 336 335 336 336 335 335 334 334 334 334 334 334 333 333 332 333 333 332 332 331 329 328 329 330 334 334 328 333 334
321 320 324 327 324 321 321 324 326 326 326 325 325 320 313 317 330 335 331 330 329 323 322 326 329 332 334 335 335 335 334 334 334 334 335 335 334 333 333 333 332 331 328 327 332 331 330 326 327
322 322 321 321 322 320 324 323 324 325 324 325 321 323 311 310 315 321 321 320 320 318 317 316 316 313 313 319 324 327 328 330 331 331 332 332 333 333 334 334 334 333 332 329 329 329 329 329 327
319 321 325 322 322 321 323 323 323 323 320 317 317 317 311 309 311 313 312 311 310 310 310 310 312 310 308 306 306 306 306 305 305 305 306 306 309 315 324 330 332 333 333 332 330 330 328 329 329
318 322 324 323 322 321 321 322 318 311 316 317 312 311 309 310 309 309 310 309 310 310 310 309 309 309 309 310 310 309 309 308 306 306 305 305 305 305 305 306 316 325 330 332 331 330 331 328 328
319 322 324 321 318 318 318 318 316 316 315 315 307 307 308 309 308 308 308 308 309 309 309 308 308 308 310 309 309 310 308 308 308 307 306 306 305 305 305 305 305 305 306 315 328 330 329 329 328
319 321 321 316 313 311 313 315 314 313 314 315 308 305 305 306 307 308 308 308 308 308 309 308 308 309 308 309 309 309 309 308 309 308 307 307 306 306 305 305 304 305 305 305 305 315 327 329 328
319 318 319 317 310 311 311 307 308 311 311 305 304 305 303 304 303 304 304 306 307 308 308 308 308 308 309 309 309 308 308 308 307 308 307 307 307 306 306 306 305 305 305 305 306 305 306 320 328
316 317 316 309 307 308 307 306 306 305 304 304 303 303 302 301 302 304 305 305 306 308 308 308 309 308 308 308 308 307 307 307 307 306 305 304 305 305 306 306 306 306 308 309 308 307 307 305 318
309 311 312 311 307 307 306 305 305 304 303 302 302 301 301 301 301 303 305 305 306 307 308 308 308 308 307 306 306 306 305 304 304 303 302 302 302 302 303 303 304 305 306 307 309 310 308 308 307
307 308 306 308 306 305 303 301 301 301 303 302 300 299 300 300 302 302 304 304 305 305 308 308 308 307 305 305 304 304 303 302 301 301 301 301 301 300 301 301 302 302 303 304 306 306 310 310 308
306 306 305 306 304 302 301 301 301 299 300 301 300 298 299 300 301 302 304 304 304 307 308 306 305 304 304 304 303 302 301 301 300 300 300 300 300 299 299 299 299 300 301 302 303 304 305 308 310
305 303 303 304 304 302 301 300 302 300 299 300 298 298 298 299 299 302 304 304 305 307 306 305 304 304 303 302 301 301 300 300 299 299 299 298 298 298 297 298 298 298 298 299 300 301 302 304 307
304 304 303 304 303 302 301 300 300 299 301 299 297 297 297 299 301 304 304 305 306 305 304 304 303 302 302 301 300 299 299 298 298 297 297 296 296 296 296 296 296 296 296 297 297 298 300 301 303
305 304 303 301 301 302 301 301 300 299 298 298 297 297 297 299 300 304 304 304 304 303 303 303 302 301 301 300 299 298 297 297 297 295 295 295 296 296 295 295 295 295 296 296 297 297 298 299 300
305 304 303 302 300 299 299 299 299 299 299 299 298 297 297 298 301 301 303 303 303 303 302 302 301 301 300 298 297 296 295 295 294 294 294 294 294 294 293 293 293 293 293 294 294 295 296 298 299
304 303 303 303 301 300 299 301 304 304 300 298 299 299 298 300 303 301 300 302 302 302 302 302 301 300 298 297 296 295 295 294 294 293 293 292 292 292 292 292 292 293 293 293 293 294 295 296 297
302 302 302 302 300 300 303 306 301 306 304 303 301 298 298 301 302 301 300 300 302 301 301 301 300 299 297 296 295 294 293 292 292 292 291 291 291 291 290 291 291 292 293 293 293 293 294 295 296
302 301 301 303 303 303 302 300 301 305 305 303 301 300 299 298 301 301 300 301 301 301 301 300 299 298 296 295 294 293 292 292 291 291 291 290 290 289 289 289 289 290 291 292 292 292 292 293 294
301 303 303 303 304 299 301 301 302 307 305 304 302 300 299 300 301 300 300 301 301 301 300 299 298 297 295 295 294 293 292 291 291 290 290 289 289 288 288 288 288 289 289 290 290 291 291 291 292
302 303 304 302 295 299 303 304 303 304 302 302 302 300 299 301 300 299 297 297 299 300 299 299 297 296 295 294 293 292 292 291 290 290 289 288 288 288 288 287 287 288 288 288 289 289 290 290 291
302 305 306 300 308 309 299 306 306 302 302 302 301 300 300 301 299 298 297 298 299 299 299 298 296 295 294 293 292 292 291 291 290 289 289 288 288 287 287 287 287 287 287 287 288 288 289 290 290
302 302 302 300 293 298 303 302 303 302 302 300 301 301 301 300 299 298 296 297 298 299 298 297 296 294 293 292 292 292 291 290 290 289 288 287 286 286 286 286 286 286 286 286 287 287 288 289 289
300 299 302 300 297 300 306 308 306 301 301 299 299 300 300 300 300 298 295 297 298 299 298 296 295 294 293 292 292 291 290 290 289 288 287 286 285 285 285 285 285 285 286 286 286 287 287 288 288
299 304 302 304 306 303 306 311 304 304 301 300 298 297 298 299 300 298 295 297 298 298 297 295 294 293 292 292 291 291 290 290 289 288 287 285 285 285 285 285 285 285 285 286 286 287 287 287 288
299 301 303 310 308 301 303 307 302 300 302 300 298 298 297 299 299 297 294 296 296 296 296 294 294 293 292 291 291 291 290 290 289 288 286 285 286 285 285 285 285 285 286 286 286 286 287 287 288
Wind_Speed
7 4 7 3 3 3 4 7 6 10 1 4 3 9 10 5 3 5 5 5 7 13 12 12 12 11 9 8 7 6 7 6 6 5 4 4 3 2 2 2 2 2 1 0 1 2 6 9 9
7 5 3 0 3 1 5 8 11 4 5 7 6 7 5 3 5 6 5 10 17 18 14 13 12 11 9 7 7 6 5 4 4 3 3 2 1 1 1 1 2 2 2 2 2 2 4 7 8
7 3 2 4 4 6 5 4 2 2 7 5 4 6 4 4 3 4 11 12 16 16 14 13 11 10 9 7 6 5 5 4 2 1 1 2 3 3 4 4 4 6 6 6 5 5 6 7 10
2 3 3 2 7 8 7 6 2 4 4 3 4 8 4 1 4 10 12 13 13 14 13 12 11 9 8 7 5 4 4 3 3 3 3 4 5 6 7 7 8 8 9 9 9 9 10 10 12
3 0 2 3 8 10 8 9 3 3 7 5 4 6 5 3 17 14 14 14 13 14 13 12 10 8 7 6 5 5 4 4 3 4 5 6 7 8 9 9 10 10 10 10 11 12 14 14 13
1 2 2 7 12 10 9 9 7 4 2 2 5 6 5 13 18 18 18 17 15 16 15 14 11 9 8 7 7 5 4 2 2 2 3 5 6 8 10 11 12 12 13 13 13 15 15 15 17
3 1 5 6 10 7 6 7 7 4 2 6 3 5 5 5 15 21 19 15 15 14 13 12 12 12 12 11 9 7 6 4 2 2 3 3 3 6 10 12 14 14 15 15 16 17 17 17 18
4 2 3 4 7 9 2 2 7 4 2 2 3 6 6 8 17 20 16 15 14 13 12 11 9 8 9 9 9 8 8 8 8 7 6 6 5 5 5 7 11 15 17 18 16 18 18 18 18
3 2 4 5 7 7 3 3 4 4 6 3 4 4 8 26 20 18 22 19 18 14 10 8 9 9 8 9 10 10 10 9 8 8 8 7 7 8 9 9 9 10 12 18 20 19 18 20 21
5 5 7 5 3 1 1 5 2 2 3 3 5 6 19 22 20 18 17 19 19 18 14 7 9 11 10 8 8 7 6 6 6 6 8 8 8 9 10 12 13 13 14 14 17 21 24 23 24
5 5 9 3 1 3 2 2 1 4 3 5 9 11 9 10 13 14 14 18 22 20 15 8 9 9 7 8 7 5 4 4 3 5 9 9 10 12 14 15 17 18 17 17 17 18 19 23 28
3 6 12 4 0 1 2 5 4 4 6 5 4 14 9 9 9 11 10 19 22 20 15 10 9 9 9 8 6 4 1 2 4 7 10 11 15 17 17 19 21 23 23 23 21 20 20 23 24
10 7 5 5 4 1 2 3 4 6 9 4 9 9 9 9 10 14 13 17 19 20 18 15 11 9 9 7 4 3 3 5 8 11 12 14 16 18 19 22 22 23 23 25 26 24 24 23 24
1 3 7 4 6 3 3 4 1 7 12 8 8 10 9 9 11 13 17 17 18 17 20 18 15 11 6 5 3 3 5 8 11 15 17 18 19 20 21 22 22 23 23 23 23 27 28 27 26
2 2 6 4 5 1 5 8 13 12 6 9 11 9 9 10 14 15 17 15 15 16 21 17 14 9 6 5 4 5 8 11 15 18 19 21 21 22 22 23 25 25 24 26 27 25 26 29 29
3 2 1 4 10 4 7 10 8 8 11 9 9 9 9 9 11 17 16 14 15 22 22 18 12 7 6 4 5 7 10 13 16 18 19 19 21 23 25 26 27 26 26 24 24 25 27 27 27
2 4 7 5 9 6 7 7 4 5 8 9 8 8 8 8 7 14 14 15 19 22 19 13 8 6 5 5 7 9 11 13 15 15 17 20 21 20 21 22 25 25 25 24 24 24 25 26 25
6 4 5 6 7 4 6 14 10 8 4 10 9 9 9 9 8 15 15 17 21 19 16 13 8 5 5 7 8 10 11 11 13 16 17 19 20 20 21 22 23 24 26 26 25 25 24 25 27
1 3 3 1 2 4 9 12 15 8 8 10 9 9 10 10 8 22 22 20 19 17 14 11 8 6 7 8 9 9 12 16 14 18 17 17 17 17 18 19 20 19 20 21 21 23 25 24 21
11 4 5 0 2 2 2 13 13 9 11 15 14 10 11 8 9 13 25 21 18 16 14 11 7 6 7 8 8 8 13 12 17 14 13 15 17 20 22 22 24 24 24 24 23 23 21 19 17
7 6 4 5 3 4 3 9 6 6 11 7 13 12 10 15 16 13 15 23 19 18 16 11 7 6 7 8 9 10 12 13 12 18 19 19 19 20 21 22 22 22 22 21 20 21 20 18 19
5 3 5 4 3 4 3 5 6 4 6 6 8 10 11 13 14 15 14 21 22 18 16 10 7 5 6 7 8 9 10 12 15 18 19 21 22 22 21 21 20 19 19 19 18 17 17 18 16
5 2 4 2 2 3 2 2 8 3 7 9 9 9 9 11 16 14 12 23 24 22 16 10 6 5 6 7 7 8 10 12 16 18 20 22 21 20 19 19 19 20 20 18 19 21 20 19 19
6 5 5 4 3 1 8 7 5 5 6 3 5 8 9 11 14 13 19 24 24 18 13 9 6 6 7 7 7 8 10 13 16 18 20 21 21 19 18 18 19 19 20 20 20 21 21 22 22
1 5 2 3 2 6 4 4 9 6 6 7 11 9 9 11 12 11 11 14 21 18 13 10 8 7 6 6 7 8 9 11 13 17 20 22 20 19 19 19 20 20 20 21 23 23 23 23 23
6 4 5 7 4 4 4 6 6 5 4 5 10 10 9 9 10 10 11 17 21 19 15 12 10 7 5 6 7 7 8 11 14 17 20 23 23 21 20 20 19 20 22 23 23 24 24 24 25
6 4 3 5 1 3 4 7 8 3 3 6 9 9 10 10 10 11 10 19 23 22 17 14 10 7 6 6 5 7 9 12 15 18 20 22 22 19 20 22 23 24 23 23 23 25 25 25 26
2 1 2 2 2 4 4 5 6 7 9 8 9 10 9 9 9 9 9 18 24 21 17 13 10 8 6 5 4 7 9 11 14 17 20 21 19 21 22 22 22 23 24 23 24 25 25 26 28
2 2 1 2 4 5 2 6 6 7 13 14 11 9 10 10 11 10 8 20 24 20 17 14 11 9 7 4 3 5 8 10 13 16 19 20 20 21 22 22 22 23 24 25 25 26 28 28 29
4 6 6 4 6 4 3 7 2 5 10 13 10 9 7 7 8 8 8 19 21 20 18 17 13 11 8 4 2 4 7 10 13 16 17 18 19 19 20 21 22 23 23 23 24 26 26 28 29
Wind_Direction
245 244 298 327 49 79 239 257 240 281 230 134 97 90 113 61 51 154 145 103 128 139 135 136 128 128 128 129 127 123 123 124 123 131 136 134 133 119 86 74 87 92 94 94 3 235 225 223 218
228 270 225 22 126 204 268 251 273 220 147 96 71 104 48 72 58 127 95 104 112 132 127 131 134 129 129 126 123 129 134 126 129 135 140 151 177 195 253 286 306 289 272 256 273 260 239 232 217
234 251 96 162 184 206 232 249 292 241 99 87 86 72 93 110 33 100 124 123 118 123 126 126 135 133 132 134 137 136 139 147 158 184 222 227 248 250 259 266 268 280 281 274 258 270 253 235 227
155 356 339 193 248 258 234 266 291 176 56 104 124 76 56 40 127 137 135 136 113 109 125 130 135 133 134 137 144 153 163 185 204 234 249 253 256 266 266 268 271 272 274 267 257 246 249 249 242
211 71 220 219 246 254 236 226 119 178 156 197 130 145 98 57 126 128 132 131 129 112 119 121 127 133 140 150 155 151 164 184 208 223 243 259 266 269 270 272 272 272 272 274 268 261 249 246 250
236 152 181 228 249 254 265 205 145 154 89 355 95 105 155 140 125 134 128 121 126 118 108 106 113 123 130 139 142 146 149 170 213 248 253 248 251 263 267 268 272 273 275 270 270 269 264 256 249
177 74 221 243 265 284 254 147 153 163 142 186 157 97 155 138 132 132 128 125 123 119 112 108 102 100 99 101 104 107 107 97 74 29 4 342 306 282 275 269 262 261 267 268 267 269 267 260 255
158 160 246 250 263 274 229 86 147 122 121 199 84 155 169 190 149 138 137 131 125 123 118 114 107 101 100 103 100 97 91 86 83 75 67 48 28 4 337 302 277 270 264 265 270 267 264 262 261
169 214 221 231 242 255 263 106 356 140 126 66 34 134 160 151 155 149 142 140 138 133 131 127 119 108 94 98 93 93 86 83 75 68 57 44 32 17 7 355 331 316 291 271 267 267 265 260 257
173 198 227 230 236 357 334 92 148 84 141 120 71 77 131 149 165 165 163 159 149 142 137 132 126 127 129 116 105 94 89 75 57 45 32 17 6 355 344 337 333 331 325 311 289 274 267 263 259
201 206 233 325 131 35 360 29 87 133 253 211 179 170 162 162 174 178 189 186 165 149 142 144 144 149 145 127 113 100 78 56 48 1 351 340 333 326 319 314 312 310 308 306 304 296 287 277 269
230 230 243 231 130 98 80 320 348 191 215 152 136 176 160 166 179 188 174 140 148 152 148 154 161 158 143 141 142 133 131 352 333 326 324 322 315 313 310 305 305 303 302 299 295 292 289 283 285
223 242 250 116 146 141 15 282 248 261 259 209 121 140 168 168 181 191 186 167 154 153 152 158 164 168 161 169 179 216 275 304 304 305 310 308 305 303 301 299 299 295 297 298 298 292 288 282 278
11 220 257 227 164 164 165 267 64 249 238 194 171 168 172 180 190 163 154 153 163 162 162 157 159 166 176 178 214 265 299 304 307 309 309 308 305 302 302 300 296 292 290 289 294 292 289 284 280
97 354 337 234 173 131 95 282 236 220 210 210 192 194 190 199 193 176 170 169 181 184 162 163 169 187 189 196 242 290 308 311 311 312 313 313 313 311 307 304 298 296 293 286 284 290 287 283 283
128 75 220 248 162 181 122 264 278 239 183 203 190 196 201 214 195 181 177 187 203 167 159 156 167 192 211 249 285 307 310 313 315 314 315 316 315 312 306 304 302 300 296 293 289 291 289 287 280
290 201 211 292 180 137 181 265 279 90 164 205 215 215 206 202 180 176 175 172 163 161 159 163 181 203 240 272 297 307 312 312 312 311 310 308 307 307 305 302 301 301 300 298 298 295 290 292 292
200 222 243 203 210 145 198 257 271 281 249 214 215 215 197 183 183 161 156 154 154 149 150 154 173 205 251 284 296 300 300 306 306 312 319 318 315 313 308 305 303 305 304 301 299 298 296 294 293
56 208 308 149 321 151 228 261 260 253 236 227 222 204 194 185 184 157 152 148 143 148 154 167 180 209 263 294 310 309 314 320 325 328 330 330 327 320 315 313 313 314 309 305 305 303 301 299 298
260 269 262 202 194 188 253 268 265 244 241 218 203 207 194 170 160 155 152 154 160 161 163 173 184 226 278 292 298 305 313 317 321 331 331 324 314 309 308 307 304 303 303 302 299 296 299 299 294
226 205 216 237 187 251 14 289 271 269 236 206 202 199 188 173 168 162 157 163 168 172 169 178 197 241 276 287 302 312 318 317 330 337 332 330 320 316 312 308 306 305 300 296 294 292 291 292 289
223 237 173 166 103 228 136 272 297 249 244 211 179 185 194 166 172 165 160 165 177 175 171 183 201 243 269 286 306 322 320 320 326 328 325 322 322 319 312 304 303 298 295 290 292 291 286 285 284
219 127 136 128 154 53 237 76 266 253 249 228 213 198 199 171 167 168 169 169 174 170 175 183 203 239 261 289 309 316 319 323 325 325 326 330 331 323 319 314 308 301 294 290 285 284 282 278 284
143 72 44 45 74 344 226 170 272 211 221 233 187 202 187 161 164 164 166 167 165 167 171 182 203 237 263 291 309 319 325 330 326 330 331 330 322 318 316 314 305 300 295 293 291 287 279 277 274
63 106 17 352 359 219 325 158 247 250 236 209 179 179 166 153 151 155 150 151 159 166 175 186 206 225 253 289 309 322 331 324 324 328 329 325 320 318 311 309 302 297 293 290 286 283 280 274 270
188 180 167 200 203 248 360 229 246 228 221 175 151 154 151 154 157 158 158 164 168 172 182 194 205 225 256 288 304 322 324 326 328 332 329 325 319 311 310 307 303 300 294 290 288 285 280 273 268
187 205 190 100 48 64 219 275 290 192 111 109 150 156 173 171 173 170 174 177 175 177 188 197 204 217 239 264 300 325 333 334 337 334 331 328 322 316 312 308 308 305 298 291 287 284 280 278 275
184 203 101 3 180 253 274 271 239 210 201 181 164 181 185 180 174 177 172 169 176 184 189 194 201 214 236 266 308 330 332 339 336 334 337 336 329 322 318 315 309 309 306 299 294 286 280 275 272
138 215 221 153 169 182 188 254 225 223 194 190 197 191 191 181 182 176 169 172 178 182 189 193 197 209 225 244 299 323 338 340 342 346 345 343 329 328 323 321 317 311 305 302 293 286 281 276 273
201 207 185 160 236 219 176 261 340 305 202 180 188 197 200 182 180 169 168 170 176 185 190 193 196 207 216 227 283 319 336 350 356 357 350 349 344 342 335 331 320 311 307 303 297 290 283 276 271